Wind_Speed
22 21 20 20 19 19 18 18 18 19 19 19 20 20 19 19 19 20 20 20 20 19 19 20 20 20 20 20 20 20 20 20 21 21 21 21 20 21 21 21 21 21 21
24 23 21 21 21 20 20 19 19 20 20 20 20 20 21 21 20 20 21 21 21 21 20 20 20 21 21 21 21 22 22 22 22 22 22 22 22 22 22 22 22 22 22
26 25 23 22 22 22 22 21 21 21 21 21 21 21 21 21 22 22 23 23 22 22 22 22 22 22 22 22 23 23 24 23 24 24 24 24 24 24 24 24 24 24 24
28 27 25 25 24 23 23 23 22 23 23 22 22 22 23 23 23 23 24 24 24 24 24 24 24 24 24 24 24 25 25 25 26 25 26 26 26 26 25 25 25 25 25
30 29 27 26 26 25 25 25 24 25 25 25 24 23 24 24 24 24 24 25 25 26 26 26 26 26 26 26 26 26 26 27 27 27 27 27 27 27 27 27 27 27 27
32 31 29 28 28 27 26 26 26 26 26 26 26 25 24 25 26 26 26 26 26 27 27 28 28 28 28 28 28 28 28 29 29 29 28 28 28 29 29 29 29 30 30
34 32 31 30 29 29 28 28 28 27 27 26 26 27 26 26 26 27 27 26 27 28 28 29 29 29 29 30 30 29 29 30 30 30 29 29 30 30 30 30 31 31 31
36 34 33 32 31 30 30 29 29 29 28 28 27 27 27 27 27 27 27 27 28 28 28 29 29 30 30 31 30 30 30 31 31 31 31 31 31 31 32 32 32 33 33
38 37 35 35 34 33 32 31 31 30 30 29 29 28 28 28 27 27 28 29 29 29 29 30 30 30 30 30 30 31 32 32 32 32 32 32 33 33 33 33 34 34 35
40 39 38 37 36 35 34 33 32 32 31 31 31 30 29 29 28 28 28 29 30 30 30 30 31 30 31 31 32 32 33 34 34 34 34 34 35 35 35 35 35 36 36
41 41 40 39 38 37 36 36 35 34 33 33 33 32 31 31 30 30 29 30 31 31 31 30 31 31 32 33 33 34 35 35 36 36 37 37 37 38 38 38 38 38 38
43 42 41 41 40 39 38 37 37 36 35 35 34 34 33 33 32 32 31 31 31 31 32 32 33 33 33 34 34 35 35 36 37 38 38 38 38 39 40 40 41 40 40
44 43 43 42 41 40 40 39 38 38 37 37 36 36 35 34 34 34 33 33 33 33 34 34 34 34 34 35 35 36 36 36 38 38 39 40 39 40 41 41 41 42 43
45 45 44 43 43 42 41 40 40 40 39 39 38 38 37 36 35 35 35 35 35 35 35 34 35 35 35 35 36 37 37 38 38 38 39 40 40 41 41 41 41 41 42
46 46 46 45 44 44 42 42 41 40 40 39 39 39 38 38 37 37 36 37 37 36 36 36 36 36 36 36 37 38 38 39 39 39 39 40 40 41 41 41 42 42 41
46 46 46 45 45 44 43 42 42 42 41 41 41 40 40 39 39 38 38 38 38 38 38 38 38 38 38 38 38 38 39 39 39 39 39 40 40 41 41 42 42 42 42
47 46 46 46 46 45 44 44 43 43 42 42 42 42 41 41 40 40 40 40 40 40 39 39 39 40 40 40 40 39 39 40 40 40 41 41 41 42 42 43 43 43 43
49 48 48 47 46 45 44 44 44 44 43 44 44 43 43 42 43 43 42 41 41 41 41 41 41 41 41 41 41 41 41 41 41 42 43 43 43 43 44 44 44 44 44
50 50 49 48 47 46 45 45 45 45 45 45 45 44 44 44 44 44 44 44 43 43 43 43 43 43 43 43 43 43 43 43 43 43 44 44 45 45 45 46 46 46 46
51 51 51 49 48 47 46 46 46 46 46 46 45 44 44 44 45 45 45 45 45 45 44 44 44 44 45 45 45 45 45 46 45 45 46 46 47 47 48 48 47 48 48
52 52 52 51 50 49 48 47 47 47 47 46 46 46 46 46 46 47 47 47 47 47 47 46 46 46 46 46 47 47 47 47 47 47 47 48 48 48 49 49 49 49 49
53 52 52 52 51 51 50 49 48 48 48 48 47 47 48 48 49 48 48 48 49 48 48 48 48 47 47 47 48 49 49 48 48 48 48 48 48 49 50 50 50 51 51
53 53 52 52 51 51 50 50 50 49 49 49 49 49 49 50 50 50 49 49 49 49 49 49 49 49 48 48 49 49 50 50 50 49 50 50 50 50 51 51 52 53 52
52 52 52 52 51 51 51 50 50 50 50 50 50 50 50 50 50 50 50 50 50 50 50 50 50 49 49 49 49 50 50 50 50 51 51 52 52 52 52 52 53 53 53
51 51 50 50 50 50 50 49 49 49 49 49 50 50 50 50 50 51 51 50 50 50 49 49 50 50 50 50 51 51 50 51 51 51 52 53 53 53 54 54 54 54 54
49 49 49 49 49 49 49 48 48 48 49 49 49 49 50 50 50 50 50 50 49 50 50 50 50 51 51 51 52 52 52 52 52 52 52 53 53 54 54 54 54 55 54
Wind_Direction
236 237 239 239 239 241 242 244 246 246 247 249 250 251 253 256 259 255 255 257 258 261 263 266 267 266 266 268 270 271 271 272 273 275 277 279 281 284 285 288 290 291 292
236 236 238 239 241 242 244 246 249 248 248 251 252 253 254 255 258 257 256 257 258 260 263 266 267 267 268 269 270 270 271 272 274 275 276 277 279 282 284 286 288 288 289
237 237 238 240 243 245 246 246 249 249 249 253 254 254 255 256 257 260 259 258 259 261 263 265 267 268 269 270 271 271 271 272 273 275 276 277 278 281 283 285 286 286 287
237 238 239 241 243 246 247 248 248 249 251 254 256 256 256 257 258 260 259 258 260 262 264 266 267 268 270 271 271 271 270 271 272 274 276 278 280 281 282 284 285 286 286
239 241 242 243 243 245 246 248 249 250 252 254 256 257 258 259 260 261 261 260 261 262 264 266 267 269 270 270 270 271 270 271 272 274 276 278 280 281 282 283 284 284 284
240 241 242 243 244 245 246 248 251 252 254 256 257 259 259 261 261 262 263 263 263 264 264 266 267 268 269 269 270 271 272 272 272 274 276 277 279 281 282 282 282 283 282
241 241 242 243 244 245 247 249 251 253 255 256 258 259 260 263 263 263 264 265 265 266 266 267 267 268 269 269 270 270 272 271 272 273 275 278 280 282 282 283 283 284 283
241 241 242 243 244 246 248 250 252 254 255 256 258 260 261 263 265 265 265 266 266 267 267 268 269 269 270 270 270 270 272 273 273 275 276 278 280 281 282 283 283 284 283
241 242 242 243 244 247 249 250 252 253 254 256 258 260 261 263 264 266 267 267 267 268 269 269 269 270 271 271 272 272 272 273 274 275 276 277 278 279 281 281 282 283 283
241 242 243 244 246 247 250 251 252 253 254 256 258 260 261 262 264 267 267 268 269 270 270 271 271 271 272 272 273 274 274 275 275 276 276 277 278 279 279 281 282 283 283
242 243 244 245 247 249 250 251 252 253 254 256 257 258 260 262 264 266 268 269 270 270 270 271 272 272 272 273 274 275 276 276 276 277 277 277 278 278 279 280 281 282 282
243 245 246 247 248 249 251 252 253 253 255 256 257 259 260 262 264 265 267 268 270 271 271 272 272 272 273 274 274 276 278 278 278 278 277 277 278 279 280 280 280 281 282
244 246 247 248 249 250 251 252 252 253 255 256 257 259 260 261 263 264 266 268 269 270 271 273 273 273 274 275 275 276 277 279 279 279 278 278 279 280 281 280 280 281 282
245 246 247 248 249 250 251 251 252 253 255 256 257 258 259 261 262 264 266 268 270 270 271 273 273 274 276 276 276 276 277 280 279 278 278 279 280 280 280 280 281 282 282
244 246 247 248 250 251 251 251 252 253 255 257 258 258 259 260 261 264 265 267 269 270 271 273 273 275 276 276 276 277 279 280 279 277 277 278 279 281 281 281 282 283 283
244 245 246 248 249 250 251 252 253 254 255 256 258 259 259 260 261 263 265 266 268 270 272 274 274 275 276 276 278 279 279 280 280 279 279 279 280 282 282 283 283 284 283
244 245 247 247 248 250 251 252 253 254 255 256 258 259 260 261 261 262 265 266 268 271 273 274 275 276 277 277 278 279 280 280 281 281 280 281 281 282 283 283 283 283 283
245 246 247 248 248 250 252 253 253 254 255 256 258 259 261 261 261 262 264 266 269 271 273 275 276 277 278 278 278 279 280 280 281 282 282 282 282 283 283 283 283 283 283
245 246 249 249 250 251 253 254 254 254 255 256 257 259 259 261 262 263 264 266 269 273 274 275 276 276 277 278 279 279 280 281 282 282 283 283 283 283 283 284 283 283 283
245 247 249 250 251 252 253 255 255 255 255 256 257 258 259 261 262 263 265 268 270 272 274 275 276 277 278 279 279 279 280 281 282 282 283 283 283 283 283 284 283 283 283
246 248 249 251 252 252 254 255 256 256 256 256 256 258 260 261 263 265 266 268 270 272 273 274 275 276 278 278 279 279 280 281 281 282 283 283 282 282 283 283 283 284 283
247 248 250 251 252 253 254 255 256 256 257 257 258 258 260 262 264 265 267 269 270 271 273 274 275 276 277 278 279 279 279 280 281 281 282 282 282 282 282 283 283 283 283
246 248 250 251 252 253 254 255 256 257 257 258 258 260 261 263 265 266 268 269 270 271 272 273 274 275 277 278 279 279 280 280 281 281 281 281 281 282 282 282 282 283 283
247 248 249 251 252 254 255 256 256 257 257 258 259 261 262 264 266 267 268 269 270 271 272 273 274 275 277 278 279 279 280 280 281 281 281 282 281 282 282 282 283 283 283
247 248 248 250 252 253 255 256 257 257 258 259 260 261 263 265 266 267 268 269 270 271 272 273 274 275 276 278 279 280 280 281 281 282 282 283 282 282 282 283 282 282 283
246 247 248 249 251 253 254 256 257 258 259 260 261 263 264 265 267 268 269 269 270 271 272 273 274 276 277 278 280 280 281 281 282 282 283 284 284 283 283 282 282 282 282
Height
5827 5829 5830 5831 5832 5833 5835 5836 5837 5838 5839 5840 5841 5842 5843 5843 5844 5844 5845 5846 5846 5847 5847 5847 5847 5847 5848 5848 5848 5847 5847 5847 5846 5846 5846 5845 5844 5843 5842 5841 5840 5839 5838
5823 5824 5826 5827 5828 5829 5830 5832 5833 5834 5835 5836 5837 5838 5839 5839 5840 5840 5841 5842 5842 5843 5843 5843 5843 5843 5844 5843 5843 5843 5843 5843 5842 5842 5841 5841 5840 5839 5838 5837 5836 5835 5833
5818 5820 5822 5823 5824 5825 5826 5828 5829 5830 5831 5832 5833 5834 5834 5835 5836 5836 5837 5837 5838 5838 5839 5839 5839 5839 5839 5839 5839 5839 5839 5838 5838 5837 5837 5836 5835 5835 5834 5833 5831 5830 5829
5813 5815 5817 5818 5819 5821 5822 5823 5825 5826 5827 5828 5828 5829 5830 5830 5831 5832 5832 5832 5833 5834 5834 5834 5834 5834 5834 5834 5834 5833 5833 5833 5833 5832 5832 5831 5830 5829 5828 5827 5826 5825 5824
5807 5809 5811 5813 5814 5816 5817 5818 5820 5821 5822 5823 5824 5825 5825 5826 5826 5827 5827 5827 5828 5828 5829 5829 5829 5829 5829 5829 5828 5828 5827 5827 5827 5827 5826 5825 5825 5824 5823 5822 5821 5819 5818
5801 5803 5805 5807 5809 5811 5812 5813 5815 5816 5817 5818 5819 5819 5820 5820 5821 5821 5822 5822 5822 5823 5823 5823 5823 5823 5823 5823 5823 5822 5822 5822 5821 5821 5820 5819 5819 5818 5817 5816 5815 5814 5812
5794 5797 5799 5801 5803 5805 5806 5808 5809 5810 5811 5812 5813 5814 5814 5815 5815 5816 5816 5816 5816 5817 5817 5817 5817 5817 5817 5816 5816 5816 5816 5815 5815 5814 5814 5813 5812 5812 5811 5810 5809 5807 5806
5787 5790 5793 5795 5797 5799 5800 5802 5803 5804 5805 5807 5808 5808 5809 5810 5810 5810 5810 5810 5810 5810 5810 5810 5810 5810 5810 5810 5810 5810 5809 5809 5808 5808 5807 5806 5806 5805 5804 5803 5802 5800 5799
5779 5782 5785 5788 5790 5792 5794 5795 5797 5798 5799 5800 5801 5803 5803 5804 5804 5804 5804 5804 5804 5804 5804 5803 5803 5803 5803 5803 5803 5803 5802 5802 5801 5801 5800 5799 5798 5798 5796 5795 5794 5792 5791
5771 5774 5777 5780 5782 5784 5786 5788 5790 5791 5793 5794 5795 5795 5796 5797 5798 5798 5798 5798 5797 5797 5797 5797 5796 5796 5796 5796 5796 5796 5795 5794 5794 5793 5792 5792 5790 5789 5788 5787 5786 5784 5783
5762 5766 5769 5772 5774 5777 5779 5781 5782 5784 5786 5787 5788 5788 5789 5790 5790 5791 5791 5791 5791 5790 5790 5790 5789 5789 5789 5789 5788 5788 5787 5786 5785 5785 5784 5783 5782 5781 5780 5778 5777 5776 5774
5754 5757 5760 5763 5766 5768 5770 5772 5774 5776 5778 5779 5780 5781 5782 5782 5783 5783 5784 5784 5784 5783 5783 5783 5782 5782 5781 5781 5780 5780 5779 5778 5777 5776 5775 5774 5773 5772 5770 5769 5768 5767 5765
5745 5748 5751 5754 5756 5759 5761 5763 5766 5768 5769 5771 5772 5773 5774 5775 5775 5776 5776 5776 5776 5776 5775 5775 5774 5774 5773 5773 5772 5772 5771 5770 5768 5767 5766 5765 5764 5763 5761 5760 5758 5757 5755
5735 5738 5741 5744 5747 5749 5751 5754 5756 5758 5760 5762 5763 5764 5765 5766 5767 5767 5768 5768 5768 5768 5767 5767 5766 5766 5765 5764 5764 5763 5762 5761 5759 5758 5757 5756 5755 5754 5752 5750 5748 5746 5745
5724 5727 5730 5733 5736 5739 5742 5744 5746 5749 5750 5752 5754 5755 5756 5757 5758 5759 5759 5759 5760 5760 5760 5759 5758 5758 5757 5756 5755 5754 5753 5752 5750 5749 5748 5747 5745 5744 5742 5740 5738 5736 5734
5713 5717 5720 5723 5726 5729 5731 5734 5736 5738 5741 5742 5744 5746 5747 5748 5749 5749 5750 5750 5750 5751 5751 5750 5750 5749 5748 5747 5746 5745 5744 5742 5741 5740 5738 5737 5735 5733 5732 5730 5728 5726 5724
5703 5706 5709 5712 5715 5718 5721 5723 5725 5728 5730 5732 5734 5735 5737 5738 5739 5740 5740 5741 5741 5741 5741 5741 5740 5739 5738 5737 5736 5735 5734 5733 5732 5730 5728 5726 5725 5723 5721 5719 5717 5715 5713
5692 5695 5699 5702 5705 5708 5710 5713 5715 5717 5720 5722 5723 5725 5726 5727 5728 5729 5730 5731 5731 5731 5731 5731 5730 5730 5729 5727 5726 5725 5724 5723 5721 5720 5718 5716 5714 5712 5710 5708 5706 5704 5702
5681 5684 5688 5691 5694 5697 5700 5702 5704 5706 5709 5711 5713 5714 5715 5717 5718 5718 5719 5720 5721 5720 5720 5720 5720 5719 5718 5717 5716 5714 5713 5711 5710 5708 5706 5705 5703 5700 5698 5696 5694 5692 5690
5669 5673 5677 5680 5683 5686 5689 5691 5694 5696 5698 5700 5702 5703 5705 5706 5707 5707 5708 5709 5709 5709 5709 5709 5708 5708 5707 5705 5704 5703 5701 5700 5698 5696 5694 5692 5690 5688 5686 5684 5682 5680 5678
5657 5661 5665 5668 5671 5675 5678 5680 5682 5684 5686 5688 5690 5692 5694 5695 5696 5696 5697 5698 5698 5698 5697 5697 5696 5696 5695 5694 5692 5690 5689 5688 5686 5684 5682 5680 5677 5675 5673 5670 5668 5666 5664
5645 5649 5653 5656 5659 5663 5666 5668 5671 5673 5675 5677 5679 5680 5682 5683 5684 5685 5685 5686 5686 5686 5685 5685 5684 5683 5682 5681 5679 5678 5676 5675 5673 5672 5669 5667 5664 5662 5660 5657 5655 5652 5650
5633 5637 5640 5644 5647 5650 5653 5656 5659 5661 5663 5665 5666 5668 5670 5671 5672 5672 5673 5673 5673 5672 5672 5672 5671 5670 5669 5668 5666 5665 5663 5661 5660 5657 5655 5653 5651 5648 5646 5643 5641 5638 5635
5620 5624 5628 5631 5635 5638 5641 5644 5646 5648 5650 5652 5654 5655 5657 5658 5659 5659 5660 5660 5659 5659 5659 5658 5658 5657 5655 5654 5652 5651 5649 5647 5646 5643 5640 5639 5637 5634 5632 5629 5626 5623 5620
5608 5612 5615 5619 5622 5625 5628 5631 5633 5635 5638 5639 5641 5642 5644 5645 5646 5646 5646 5646 5646 5646 5645 5645 5644 5643 5641 5640 5638 5636 5635 5633 5631 5629 5625 5623 5622 5619 5617 5614 5611 5608 5605
5596 5600 5603 5607 5610 5613 5616 5618 5620 5623 5625 5627 5628 5629 5631 5632 5632 5632 5632 5633 5633 5632 5632 5631 5630 5629 5627 5626 5624 5622 5620 5618 5616 5615 5612 5608 5606 5603 5602 5600 5595 5592 5590